Wind_Speed
12 12 12 13 14 16 17 18 19 20 21 21 21 21 20 19 20 24 22 20 22 21 17 14 11 9 8 3 4 9 15 16 11 3 20 20 13 8 5 6 8 8 6 15 26
14 14 14 14 14 15 16 17 18 19 19 19 20 21 20 19 18 16 14 19 20 23 20 17 13 14 11 9 6 11 13 9 7 14 22 16 9 4 13 7 8 6 11 22 24
18 18 18 18 18 17 16 17 18 19 19 19 19 19 20 19 17 15 12 13 16 20 22 21 19 20 17 16 11 12 8 10 6 20 12 16 10 5 3 2 3 2 8 21 23
20 20 20 19 19 18 18 17 17 19 19 20 19 19 18 18 10 7 7 8 13 22 25 24 23 23 20 16 12 11 7 14 16 13 17 12 11 12 3 2 7 2 5 14 22
21 22 22 22 22 22 21 22 21 21 21 20 20 20 19 18 9 18 15 11 9 21 24 24 25 24 22 18 17 18 11 14 20 28 7 13 12 10 10 6 6 2 5 10 16
22 22 23 24 25 24 24 24 24 24 24 23 22 21 21 16 12 17 17 15 14 17 24 26 24 22 21 22 18 13 11 14 7 20 18 16 22 16 12 6 8 3 8 13 14
23 24 24 26 26 25 24 24 23 23 23 23 22 23 22 9 17 19 16 16 16 17 22 24 20 25 21 28 18 14 16 5 17 25 13 18 20 15 9 9 7 8 11 14 15
24 24 25 25 26 25 24 22 22 21 21 21 21 21 23 14 19 18 15 12 16 17 19 21 20 21 21 21 18 15 14 9 6 24 15 24 21 16 11 13 12 9 14 17 18
24 25 25 24 24 23 23 20 20 19 19 19 20 20 16 16 14 15 15 14 11 16 20 26 22 21 22 17 20 19 15 11 8 25 23 21 22 18 16 16 14 8 16 17 21
26 25 23 22 21 21 21 18 17 17 16 16 17 17 12 8 18 20 21 20 17 17 28 28 18 23 26 26 28 20 17 11 7 21 23 22 19 22 20 18 17 10 18 20 20
24 23 20 20 19 20 18 15 11 14 15 17 16 18 11 17 20 17 21 21 21 21 29 29 24 31 34 31 26 19 18 13 9 22 19 24 23 24 20 20 20 14 15 20 19
22 21 17 16 16 18 19 17 14 15 17 12 16 18 11 20 24 21 21 24 27 28 26 26 30 33 30 31 28 28 23 21 13 11 19 25 30 29 26 22 18 13 10 14 18
22 21 17 15 14 15 15 13 12 15 17 14 8 10 14 21 24 23 23 24 29 31 29 28 33 31 30 28 30 31 29 23 12 12 5 29 33 30 31 28 26 26 14 6 10
22 20 20 14 16 16 14 10 10 12 13 5 3 4 8 4 18 23 33 26 28 30 29 26 29 21 30 31 26 28 31 22 17 14 22 19 15 30 25 33 32 33 32 16 8
22 20 17 19 13 13 9 9 9 8 4 2 3 7 6 6 4 3 18 34 29 25 27 35 20 28 26 29 29 31 22 21 20 22 22 26 16 25 30 33 38 39 39 31 14
20 19 15 18 13 10 8 7 8 4 5 5 3 3 8 10 4 3 4 30 26 22 25 32 22 18 23 25 27 19 19 19 22 21 12 24 24 22 32 37 43 41 41 39 22
20 20 19 14 11 9 8 7 6 6 3 8 6 5 2 6 2 7 10 23 29 23 27 27 32 26 24 25 26 27 24 11 5 8 7 26 17 27 24 17 27 39 38 37 32
20 18 17 13 9 8 7 7 8 3 12 17 20 15 9 9 3 3 3 14 31 18 11 23 23 31 27 31 27 30 30 15 7 4 9 21 10 28 26 18 22 36 25 29 34
21 19 19 4 3 6 6 7 2 8 16 22 18 9 5 4 2 7 2 5 4 28 22 6 26 27 36 25 24 28 26 23 27 25 3 12 23 35 22 25 31 27 25 32 34
22 21 11 5 8 7 5 7 4 10 12 15 8 5 10 9 7 4 4 6 7 8 6 16 25 22 30 21 29 28 23 19 18 6 5 7 7 15 23 31 29 32 28 33 30
22 15 6 11 12 6 4 5 7 11 10 9 8 8 11 14 10 10 3 5 2 5 4 10 16 27 24 28 22 27 32 24 15 23 6 2 7 12 19 31 29 26 30 27 26
20 8 7 7 5 4 7 5 3 11 10 5 8 9 12 15 17 12 9 6 8 10 9 15 4 14 32 27 21 12 21 32 26 8 23 21 18 13 14 28 28 31 33 23 18
18 4 11 10 5 8 10 12 10 10 9 6 5 11 15 17 18 21 21 19 9 6 14 16 7 8 16 24 24 20 20 18 26 30 25 12 7 8 13 8 21 31 32 26 26
17 6 8 14 14 14 14 8 6 4 8 10 14 17 19 23 21 25 34 38 32 15 6 7 4 7 11 13 12 13 19 18 21 30 25 24 23 15 13 11 15 27 20 29 30
17 9 6 11 18 15 9 7 6 8 6 9 11 14 16 21 23 23 28 38 42 26 19 9 9 10 15 17 15 17 18 18 14 28 31 32 20 29 22 17 10 21 22 24 33
16 11 8 9 10 8 7 8 10 8 5 12 16 18 18 22 25 27 24 22 24 18 22 7 7 11 16 10 11 17 17 16 19 22 34 31 17 18 18 16 16 26 21 21 30
19 15 7 4 8 6 5 9 10 7 6 7 10 14 18 24 28 27 25 26 26 16 15 7 3 11 3 6 8 12 16 16 15 25 31 32 30 10 23 26 22 28 22 24 8
Wind_Direction
324 321 317 312 308 308 308 305 300 296 293 288 285 282 279 275 269 263 261 250 240 240 241 237 239 237 229 248 301 285 272 285 290 184 170 165 182 130 97 162 130 136 163 194 168
321 317 313 312 310 307 304 304 303 300 296 293 288 284 281 278 274 275 261 248 232 231 230 227 214 231 216 182 194 253 277 321 324 201 185 186 203 208 148 187 151 145 163 177 180
311 309 307 307 305 303 302 301 299 297 295 293 290 285 282 279 276 272 264 251 222 216 216 217 210 213 209 194 205 246 255 57 71 180 191 170 185 204 185 135 246 38 175 178 179
315 312 308 305 302 301 302 300 298 298 295 291 289 285 280 276 277 269 242 229 204 200 207 208 206 207 212 195 189 237 267 274 312 223 185 163 207 200 262 23 70 71 169 182 182
309 307 306 304 302 301 298 297 296 294 291 291 288 284 278 271 269 249 243 235 217 202 201 206 205 202 209 192 201 237 264 298 316 185 194 172 193 191 194 198 180 287 188 183 175
312 309 306 303 300 297 295 292 291 289 288 283 281 281 277 278 256 241 238 223 225 212 200 199 201 200 208 194 220 223 267 293 234 167 166 185 179 180 201 226 227 257 200 190 176
313 311 309 306 302 298 294 291 289 288 286 281 276 271 272 276 247 237 233 244 224 212 206 200 188 199 197 189 215 248 271 278 180 170 167 194 174 207 233 242 233 189 203 195 180
318 317 315 312 307 304 298 293 289 289 284 281 276 271 268 258 249 243 236 218 217 199 203 191 179 197 206 200 201 229 248 266 140 179 198 189 186 194 217 223 209 207 199 195 194
323 321 319 313 308 305 300 296 289 285 281 279 275 274 276 254 246 225 229 223 213 192 195 167 181 194 194 212 219 233 238 220 167 186 183 199 180 199 212 220 227 238 204 199 193
323 322 321 316 313 308 302 297 290 286 280 279 275 273 264 189 203 202 209 222 217 199 171 172 188 208 201 201 214 214 215 211 237 200 197 204 200 194 207 229 243 248 213 207 205
325 323 323 316 317 312 302 303 286 291 285 276 276 268 243 210 216 207 195 194 202 193 191 185 204 207 199 204 215 203 208 232 251 212 208 216 202 197 209 222 234 251 221 214 213
330 325 320 315 317 314 311 331 326 313 306 287 266 267 251 221 225 207 196 194 191 197 195 203 217 204 203 206 210 213 224 228 262 262 209 200 178 189 206 227 250 273 270 228 216
329 324 318 319 313 307 314 327 319 313 309 323 282 270 255 240 240 223 219 211 196 202 200 213 216 207 206 207 213 218 224 228 243 197 170 178 176 183 201 211 226 253 270 258 243
325 321 315 320 311 310 315 310 293 308 307 16 25 58 353 291 257 245 216 215 214 210 202 220 216 220 214 217 209 228 215 231 244 235 216 211 208 199 196 211 224 227 242 241 237
323 323 322 319 311 306 299 277 283 291 340 29 3 319 336 293 271 355 213 212 214 208 206 214 222 211 218 221 207 229 238 238 245 249 221 224 220 222 215 215 227 231 229 238 239
329 327 330 318 316 294 267 259 254 242 260 10 75 318 252 325 332 274 255 208 214 208 223 225 211 227 232 212 214 238 246 247 247 255 191 199 201 211 220 250 236 229 231 230 231
337 333 332 327 317 297 259 224 206 214 300 310 292 335 347 337 147 37 261 199 199 212 223 229 226 219 228 229 231 232 242 228 235 205 209 203 212 254 246 251 225 222 230 232 227
338 342 336 325 321 300 271 218 223 257 302 297 307 298 14 359 326 317 55 217 209 211 230 236 238 219 210 224 229 229 233 212 188 174 204 214 231 234 236 252 222 213 227 231 225
338 342 344 12 288 278 236 212 233 327 310 312 316 310 297 217 357 250 278 17 242 217 235 240 237 216 218 218 227 230 239 245 239 259 272 210 233 255 235 226 207 207 226 225 222
343 340 353 330 326 329 297 238 204 346 319 302 317 305 318 297 282 230 184 55 85 119 250 247 254 227 213 225 228 238 232 231 216 180 246 243 206 236 206 210 207 210 223 214 215
345 340 323 342 358 0 34 22 325 297 308 314 297 274 288 297 276 285 232 176 339 1 66 20 237 223 233 238 236 229 234 239 243 218 182 221 264 269 247 220 212 210 206 223 217
347 338 294 298 351 9 348 347 251 274 300 300 278 279 277 279 283 282 254 300 315 346 357 17 289 254 243 232 221 244 242 237 231 216 223 245 249 299 238 217 211 214 213 214 243
348 323 225 257 238 237 279 262 275 284 295 312 281 275 278 289 299 274 273 259 274 313 358 351 357 318 244 239 240 251 247 259 245 234 234 199 217 175 139 217 229 231 219 216 227
339 298 235 217 236 249 265 281 258 298 291 303 314 304 296 288 279 276 276 278 263 271 297 306 276 298 286 300 296 274 235 228 237 220 219 230 227 242 219 239 207 218 231 216 205
339 310 285 250 238 251 240 257 284 301 290 303 294 301 301 300 296 279 267 272 267 258 273 296 267 290 303 299 280 283 261 225 242 237 221 227 223 220 265 243 197 202 228 210 211
334 321 307 285 272 251 257 264 267 231 277 287 281 285 278 288 296 293 277 268 279 242 249 257 268 303 319 317 298 284 256 254 238 244 232 229 223 236 241 207 197 203 211 216 215
336 331 339 289 186 206 300 277 214 313 224 249 278 287 292 300 282 276 275 262 261 248 229 259 341 331 357 322 279 276 273 258 247 234 238 230 225 229 202 191 181 186 183 170 185
Height
3169 3167 3166 3164 3162 3159 3157 3155 3154 3152 3152 3152 3151 3151 3151 3152 3152 3152 3156 3161 3163 3166 3169 3171 3172 3173 3173 3173 3171 3170 3170 3169 3169 3170 3169 3171 3173 3177 3178 3177 3177 3179 3180 3183 3183
3166 3164 3163 3161 3159 3157 3155 3153 3150 3149 3147 3147 3147 3146 3147 3147 3148 3150 3152 3152 3157 3160 3164 3168 3171 3170 3173 3174 3172 3170 3168 3167 3165 3167 3169 3169 3172 3174 3177 3176 3177 3178 3180 3182 3183
3164 3162 3160 3158 3155 3153 3152 3150 3147 3145 3144 3143 3142 3142 3142 3143 3145 3145 3146 3147 3151 3155 3159 3162 3166 3168 3170 3171 3170 3168 3165 3168 3170 3170 3170 3171 3174 3174 3177 3177 3178 3179 3179 3181 3183
3161 3158 3156 3154 3152 3150 3147 3145 3144 3141 3140 3139 3138 3137 3138 3139 3143 3142 3143 3144 3146 3150 3153 3157 3161 3164 3167 3168 3170 3167 3164 3169 3170 3175 3172 3169 3173 3174 3177 3179 3179 3180 3181 3181 3183
3157 3154 3152 3150 3147 3146 3144 3141 3139 3137 3135 3134 3134 3133 3133 3135 3139 3137 3139 3142 3144 3145 3149 3153 3157 3161 3163 3167 3168 3165 3164 3164 3167 3169 3170 3170 3171 3171 3175 3177 3179 3180 3180 3182 3184
3152 3150 3147 3145 3143 3141 3138 3136 3134 3132 3130 3129 3128 3128 3128 3132 3132 3132 3134 3137 3140 3142 3145 3148 3153 3158 3160 3163 3165 3165 3163 3164 3166 3168 3172 3173 3173 3173 3176 3177 3178 3179 3180 3182 3184
3148 3145 3142 3139 3137 3135 3133 3130 3128 3126 3124 3123 3122 3122 3123 3128 3126 3127 3130 3134 3135 3138 3141 3146 3152 3154 3157 3161 3162 3163 3161 3160 3164 3166 3168 3175 3175 3174 3176 3176 3177 3178 3180 3181 3183
3143 3139 3136 3133 3130 3128 3126 3124 3122 3121 3119 3118 3116 3116 3116 3121 3120 3123 3127 3130 3132 3134 3138 3143 3148 3152 3153 3157 3159 3160 3161 3160 3164 3165 3165 3168 3171 3173 3174 3174 3176 3178 3180 3180 3181
3138 3134 3130 3127 3124 3122 3119 3118 3116 3115 3114 3113 3112 3112 3112 3114 3116 3118 3121 3125 3128 3131 3135 3138 3143 3146 3150 3153 3156 3157 3157 3159 3162 3165 3162 3167 3168 3171 3174 3173 3174 3176 3178 3179 3182
3133 3128 3125 3122 3119 3116 3114 3113 3111 3110 3109 3108 3108 3110 3110 3110 3109 3112 3115 3120 3124 3128 3132 3134 3137 3140 3144 3147 3147 3153 3156 3158 3161 3164 3164 3163 3164 3168 3170 3172 3173 3176 3177 3179 3180
3127 3124 3121 3118 3116 3113 3111 3111 3112 3108 3105 3104 3105 3103 3105 3106 3106 3108 3110 3113 3119 3123 3126 3130 3132 3132 3139 3144 3148 3152 3155 3158 3160 3164 3164 3163 3163 3166 3169 3172 3172 3174 3177 3177 3179
3123 3120 3119 3115 3113 3110 3108 3107 3105 3105 3099 3099 3098 3097 3100 3102 3102 3105 3108 3110 3113 3116 3121 3127 3125 3133 3139 3142 3146 3148 3151 3155 3158 3159 3161 3162 3166 3168 3170 3172 3173 3174 3174 3175 3178
3119 3117 3115 3113 3110 3107 3107 3107 3104 3102 3097 3092 3092 3092 3094 3096 3097 3102 3104 3106 3108 3112 3116 3120 3123 3131 3135 3139 3142 3143 3147 3153 3159 3160 3160 3163 3167 3168 3169 3171 3173 3174 3175 3174 3175
3116 3113 3110 3111 3109 3105 3104 3104 3102 3099 3096 3093 3091 3092 3093 3091 3092 3094 3098 3103 3105 3107 3114 3117 3120 3125 3130 3131 3139 3140 3145 3151 3155 3160 3159 3164 3167 3166 3166 3169 3168 3169 3172 3173 3174
3113 3109 3106 3103 3104 3102 3102 3100 3099 3100 3098 3095 3094 3093 3091 3091 3091 3090 3091 3096 3099 3104 3110 3108 3114 3119 3123 3126 3134 3134 3144 3149 3152 3154 3156 3158 3162 3159 3162 3162 3161 3163 3165 3170 3172
3109 3105 3102 3098 3098 3097 3095 3096 3098 3101 3094 3094 3092 3090 3091 3089 3089 3089 3090 3093 3099 3102 3105 3106 3113 3117 3120 3123 3128 3138 3142 3146 3148 3150 3151 3150 3154 3152 3153 3151 3154 3159 3160 3164 3169
3106 3101 3098 3096 3095 3093 3093 3094 3098 3094 3092 3090 3088 3087 3089 3088 3087 3086 3086 3088 3092 3097 3099 3103 3105 3110 3116 3120 3126 3131 3136 3141 3144 3144 3145 3147 3149 3141 3146 3147 3149 3150 3154 3158 3165
3104 3100 3096 3093 3091 3091 3091 3093 3093 3089 3088 3086 3085 3085 3086 3082 3083 3085 3087 3088 3092 3096 3098 3099 3102 3104 3108 3113 3118 3123 3129 3134 3140 3141 3139 3143 3138 3135 3140 3142 3144 3146 3151 3156 3160
3099 3097 3094 3091 3091 3090 3090 3090 3090 3089 3087 3083 3084 3084 3083 3083 3082 3083 3087 3088 3091 3097 3098 3094 3094 3099 3103 3111 3116 3118 3122 3130 3133 3132 3135 3133 3133 3131 3134 3137 3138 3141 3144 3148 3151
3096 3092 3091 3090 3088 3087 3087 3088 3089 3088 3085 3084 3084 3085 3082 3081 3080 3080 3084 3088 3087 3088 3089 3090 3091 3092 3098 3104 3108 3113 3120 3124 3123 3130 3134 3128 3128 3125 3127 3128 3132 3134 3136 3140 3147
3092 3089 3087 3086 3086 3086 3085 3086 3087 3085 3084 3084 3084 3083 3082 3080 3080 3080 3082 3087 3086 3083 3085 3084 3087 3085 3093 3095 3100 3107 3109 3116 3119 3120 3123 3127 3124 3125 3122 3124 3127 3131 3135 3138 3142
3090 3087 3085 3085 3088 3085 3085 3085 3083 3082 3081 3082 3083 3082 3080 3080 3080 3081 3081 3083 3083 3086 3084 3084 3082 3081 3084 3091 3097 3100 3104 3110 3113 3116 3117 3120 3120 3121 3116 3119 3125 3128 3131 3135 3140
3088 3085 3084 3083 3083 3083 3082 3082 3081 3079 3078 3079 3081 3081 3081 3080 3080 3077 3077 3080 3084 3085 3085 3084 3083 3080 3082 3087 3091 3093 3097 3101 3107 3112 3114 3117 3120 3122 3120 3124 3128 3127 3132 3137 3142
3084 3083 3082 3081 3079 3079 3078 3078 3078 3078 3076 3076 3077 3078 3078 3078 3079 3074 3073 3072 3078 3084 3085 3086 3084 3084 3085 3086 3088 3087 3088 3094 3099 3103 3109 3111 3116 3120 3122 3122 3122 3125 3130 3136 3141
3080 3077 3078 3077 3077 3076 3076 3075 3074 3076 3075 3074 3074 3074 3074 3073 3070 3070 3071 3067 3071 3081 3082 3083 3081 3081 3080 3081 3081 3082 3083 3086 3090 3097 3100 3107 3112 3116 3118 3120 3121 3124 3127 3132 3136
3077 3075 3072 3071 3071 3071 3070 3072 3071 3070 3071 3072 3072 3072 3071 3070 3069 3065 3066 3067 3065 3074 3077 3080 3078 3077 3077 3078 3079 3078 3081 3083 3085 3091 3096 3103 3108 3111 3116 3117 3119 3123 3126 3127 3129
3070 3068 3068 3069 3067 3067 3067 3067 3067 3068 3070 3068 3068 3068 3067 3064 3062 3061 3061 3061 3062 3068 3071 3074 3073 3074 3074 3075 3076 3079 3080 3082 3083 3087 3092 3096 3104 3109 3111 3114 3116 3119 3124 3125 3131